CST,Max TemperatureF,Mean TemperatureF,Min TemperatureF,Max Dew PointF,MeanDew PointF,Min DewpointF,Max Humidity, Mean Humidity, Min Humidity, Max Sea Level PressureIn, Mean Sea Level PressureIn, Min Sea Level PressureIn, Max VisibilityMiles, Mean VisibilityMiles, Min VisibilityMiles, Max Wind SpeedMPH, Mean Wind SpeedMPH, Max Gust SpeedMPH,PrecipitationIn, CloudCover, Events, WindDirDegrees
2014-1-1,69,53,36,40,34,27,82,57,32,30.25,30.07,29.92,10,10,10,32,13,41,0.00,0,,217
2014-1-2,50,39,28,29,23,21,78,56,34,30.53,30.43,30.29,10,10,10,21,8,24,0.00,0,,16
2014-1-3,59,42,25,27,22,16,81,52,23,30.41,30.19,29.96,10,10,10,29,16,40,0.00,0,,190
2014-1-4,72,58,44,41,38,27,83,56,29,29.94,29.83,29.73,10,10,10,31,19,40,0.00,0,,204
2014-1-5,54,41,27,41,21,7,75,54,33,30.51,30.20,29.80,10,10,10,23,15,31,0.00,1,,2
2014-1-6,32,24,15,10,5,2,67,51,35,30.77,30.65,30.53,10,10,10,25,8,30,0.00,0,,70
2014-1-7,49,31,13,25,17,9,84,59,34,30.57,30.38,30.20,10,10,10,25,9,30,0.00,0,,199
2014-1-8,62,49,36,37,36,28,86,64,42,30.17,30.09,29.99,10,10,10,25,13,37,0.00,3,,196
2014-1-9,58,43,27,47,35,27,100,81,62,30.21,30.10,29.95,10,6,0,13,4,16,0.00,3,Fog,205
2014-1-10,73,60,47,54,41,19,96,55,14,29.92,29.84,29.72,10,9,5,29,14,39,T,4,Rain,225
2014-1-11,71,52,33,26,23,18,56,35,14,30.19,30.06,29.88,10,10,10,16,6,22,0.00,0,,231
2014-1-12,74,59,44,48,35,26,72,49,25,30.03,29.89,29.78,10,10,10,31,19,38,0.00,0,,194
2014-1-13,63,48,33,46,20,9,80,46,12,30.19,30.09,29.90,10,10,10,18,10,25,0.00,0,,274
2014-1-14,66,48,29,30,20,12,53,35,17,30.42,30.19,30.07,10,10,10,30,13,36,0.00,0,,322
2014-1-15,62,45,27,23,20,17,69,45,20,30.49,30.31,30.06,10,10,10,21,8,24,0.00,0,,236
2014-1-16,70,51,31,25,23,21,69,43,17,30.25,30.12,30.02,10,10,10,25,11,31,0.00,0,,16
2014-1-17,60,43,26,24,20,16,75,47,19,30.40,30.29,30.21,10,10,10,12,5,15,0.00,2,,168
2014-1-18,71,51,31,32,24,18,69,42,15,30.24,30.14,30.05,10,10,10,21,10,26,0.00,0,,224
2014-1-19,72,49,26,35,25,17,81,48,14,30.36,30.20,30.03,10,10,10,20,7,23,0.00,0,,220
2014-1-20,76,58,39,37,26,18,79,45,11,30.31,30.03,29.90,10,10,10,33,12,41,0.00,0,,293
2014-1-21,61,46,31,21,18,16,58,38,17,30.49,30.37,30.19,10,10,10,15,6,20,0.00,0,,284
2014-1-22,70,50,30,21,18,15,54,35,15,30.17,30.03,29.91,10,10,10,23,7,27,0.00,0,,204
2014-1-23,48,36,24,25,3,-8,56,40,23,30.76,30.56,30.03,10,10,10,30,19,37,T,7,,26
2014-1-24,46,35,24,15,2,-7,47,31,15,30.76,30.54,30.31,10,10,10,15,9,17,0.00,5,,274
2014-1-25,70,47,23,23,16,11,60,35,10,30.32,30.16,29.99,10,10,10,14,7,15,0.00,1,,224
2014-1-26,78,58,37,32,22,17,54,32,10,29.96,29.81,29.69,10,10,10,30,11,40,0.00,0,,251
2014-1-27,46,37,27,26,7,-7,59,40,20,30.30,30.17,29.83,10,10,9,35,15,39,T,2,,25
2014-1-28,36,28,19,2,-4,-10,43,29,14,30.53,30.43,30.29,10,10,10,22,11,26,0.00,1,,24
2014-1-29,53,31,9,10,4,-1,63,39,14,30.47,30.30,30.11,10,10,10,22,8,29,0.00,0,,197
2014-1-30,68,52,36,39,27,11,64,44,24,30.06,29.90,29.78,10,10,10,31,21,41,0.00,0,,201
2014-1-31,85,62,39,45,41,32,85,50,15,29.86,29.77,29.69,10,10,10,25,10,31,0.00,0,,204